This is the latest recevied weather packets stored in our database for station/object DB0OHA-10. If no packets are shown the sender has not sent any weather packets the latest 10 day(s).
| Time | Temp. | Humidity | Pressure | Rain* | Wind** | Luminosity | Snow |
|---|---|---|---|---|---|---|---|
| 1777573819 | 13.33° C | 49% | 1028.8 hPa | 0 mm | - | 9 W/m² | - |
| 1777572962 | 13.89° C | 48% | 1028.6 hPa | 0 mm | - | 19 W/m² | - |
| 1777572919 | 13.89° C | 48% | 1028.6 hPa | 0 mm | - | 19 W/m² | - |
| 1777572019 | 14.44° C | 47% | 1028.5 hPa | 0 mm | - | 40 W/m² | - |
| 1777571119 | 15° C | 48% | 1028.5 hPa | 0 mm | - | 77 W/m² | - |
| 1777570219 | 15° C | 47% | 1028.7 hPa | 0 mm | - | 111 W/m² | - |
| 1777569319 | 15° C | 46% | 1028.5 hPa | 0 mm | - | 144 W/m² | - |
| 1777568419 | 15.56° C | 45% | 1028.6 hPa | 0 mm | - | 160 W/m² | - |
| 1777567519 | 16.11° C | 44% | 1028.6 hPa | 0 mm | - | 197 W/m² | - |
| 1777566619 | 16.11° C | 43% | 1028.6 hPa | 0 mm | - | 225 W/m² | - |
| 1777565719 | 16.11° C | 44% | 1028.6 hPa | 0 mm | - | 281 W/m² | - |
| 1777564819 | 16.67° C | 42% | 1028.6 hPa | 0 mm | - | 346 W/m² | - |
| 1777563919 | 16.67° C | 42% | 1028.6 hPa | 0 mm | - | 353 W/m² | - |
| 1777563019 | 16.67° C | 43% | 1028.7 hPa | 0 mm | - | 390 W/m² | - |
| 1777562119 | 16.67° C | 42% | 1028.8 hPa | 0 mm | - | 424 W/m² | - |
| 1777561219 | 16.67° C | 41% | 1028.9 hPa | 0 mm | - | 471 W/m² | - |
| 1777560319 | 16.67° C | 40% | 1028.9 hPa | 0 mm | - | 506 W/m² | - |
| 1777559419 | 16.67° C | 40% | 1028.9 hPa | 0 mm | - | 545 W/m² | - |
| 1777558519 | 16.67° C | 39% | 1029 hPa | 0 mm | - | 568 W/m² | - |
| 1777557619 | 17.22° C | 39% | 1029.2 hPa | 0 mm | - | 598 W/m² | - |
| 1777556719 | 17.22° C | 39% | 1029.1 hPa | 0 mm | - | 626 W/m² | - |
| 1777555819 | 16.67° C | 38% | 1029.3 hPa | 0 mm | - | 652 W/m² | - |
| 1777554919 | 16.67° C | 38% | 1029.5 hPa | 0 mm | - | 679 W/m² | - |
| 1777554019 | 16.67° C | 36% | 1029.5 hPa | 0 mm | - | 687 W/m² | - |
| 1777553119 | 16.11° C | 37% | 1029.6 hPa | 0 mm | - | 657 W/m² | - |
* Rain latest hour (hover to see other rain measurements)
** Current wind speed in m/s (hover to see current wind gust speed)